UBG115 VECC-VGHS

Flight info

Callsign UBG115
Flight time 0h 34m
Altitude 19000
Route BEMAK2E BEMAK A462 IKOGU IKOGU1E
Aircraft DH8D/M-SDE2E3FGRY/H

Departure

Time 2026-04-25 16:22
Airport Netaji Subhash Chandra Bose International Airport (VECC)

Arrival

Time 2026-04-25 16:56
Airport Hazrat Shahjalal International Airport (VGHS)
Time Latitude Longitude Altitude Speed Heading
2026-04-25 16:13 22.64130 88.44202 24 ft 0 kts 97°
2026-04-25 16:18 22.64130 88.44203 24 ft 2 kts 97°
2026-04-25 16:19 22.64124 88.44260 24 ft 7 kts 97°
2026-04-25 16:19 22.64152 88.44302 24 ft 7 kts 16°
2026-04-25 16:19 22.64181 88.44362 23 ft 11 kts 78°
2026-04-25 16:20 22.64241 88.44517 22 ft 7 kts 67°
2026-04-25 16:20 22.64268 88.44590 22 ft 12 kts 68°
2026-04-25 16:20 22.64314 88.44643 23 ft 0 kts
2026-04-25 16:21 22.64419 88.44656 24 ft 53 kts
2026-04-25 16:22 22.65122 88.44738 27 ft 141 kts
2026-04-25 16:22 22.66235 88.44900 210 ft 174 kts 11°
2026-04-25 16:22 22.67458 88.45133 799 ft 183 kts 12°
2026-04-25 16:22 22.68699 88.45479 1397 ft 194 kts 22°
2026-04-25 16:23 22.69650 88.46424 2062 ft 184 kts 68°
2026-04-25 16:23 22.70099 88.47682 2804 ft 182 kts 78°
2026-04-25 16:23 22.70399 88.48988 3545 ft 180 kts 82°
2026-04-25 16:23 22.70671 88.50286 4289 ft 181 kts 79°
2026-04-25 16:24 22.71004 88.51758 4332 ft 228 kts 78°
2026-04-25 16:24 22.71428 88.53529 4596 ft 252 kts 77°
2026-04-25 16:24 22.71879 88.55315 5466 ft 245 kts 76°
2026-04-25 16:24 22.72331 88.57101 6158 ft 247 kts 76°
2026-04-25 16:25 22.72783 88.58886 6873 ft 247 kts 74°
2026-04-25 16:25 22.73088 88.60075 7271 ft 251 kts 72°
2026-04-25 16:25 22.74177 88.62300 8100 ft 253 kts 52°
2026-04-25 16:25 22.75204 88.63835 8742 ft 254 kts 51°
2026-04-25 16:26 22.76240 88.65376 9325 ft 256 kts 51°
2026-04-25 16:26 22.77293 88.66940 9922 ft 258 kts 50°
2026-04-25 16:26 22.78342 88.68502 10534 ft 259 kts 50°
2026-04-25 16:26 22.79405 88.70084 11123 ft 262 kts 50°
2026-04-25 16:27 22.80483 88.71688 11716 ft 264 kts 50°
2026-04-25 16:27 22.81562 88.73292 12294 ft 266 kts 51°
2026-04-25 16:27 22.82648 88.74909 12873 ft 268 kts 50°
2026-04-25 16:27 22.83749 88.76548 13463 ft 270 kts 51°
2026-04-25 16:28 22.84853 88.78192 14044 ft 273 kts 51°
2026-04-25 16:28 22.85972 88.79858 14606 ft 276 kts 50°
2026-04-25 16:28 22.87111 88.81554 15110 ft 282 kts 51°
2026-04-25 16:28 22.88277 88.83292 15594 ft 289 kts 50°
2026-04-25 16:29 22.89469 88.85067 16076 ft 295 kts 51°
2026-04-25 16:29 22.90683 88.86877 16635 ft 297 kts 51°
2026-04-25 16:29 22.91908 88.88706 17277 ft 298 kts 51°
2026-04-25 16:29 22.93111 88.90509 17874 ft 301 kts 51°
2026-04-25 16:30 22.94296 88.92427 18437 ft 306 kts 53°
2026-04-25 16:30 22.95459 88.94366 18691 ft 311 kts 53°
2026-04-25 16:30 22.95985 88.95239 18753 ft 312 kts 53°
2026-04-25 16:31 22.97458 88.97687 18797 ft 319 kts 53°
2026-04-25 16:31 22.98672 88.99702 18805 ft 325 kts 54°
2026-04-25 16:31 22.99929 89.01788 18806 ft 331 kts 53°
2026-04-25 16:32 23.01200 89.03896 18807 ft 335 kts 53°
2026-04-25 16:32 23.02467 89.05999 18803 ft 338 kts 53°
2026-04-25 16:32 23.03779 89.08175 18806 ft 341 kts 53°
2026-04-25 16:32 23.05079 89.10331 18805 ft 344 kts 54°
2026-04-25 16:33 23.06399 89.12521 18803 ft 346 kts 53°
2026-04-25 16:33 23.07722 89.14717 18799 ft 347 kts 54°
2026-04-25 16:33 23.09047 89.16917 18802 ft 349 kts 53°
2026-04-25 16:33 23.10367 89.19110 18806 ft 350 kts 54°
2026-04-25 16:34 23.11704 89.21331 18801 ft 350 kts 53°
2026-04-25 16:34 23.13032 89.23538 18800 ft 351 kts 54°
2026-04-25 16:34 23.14374 89.25768 18799 ft 352 kts 53°
2026-04-25 16:34 23.15712 89.27995 18801 ft 352 kts 54°
2026-04-25 16:35 23.17047 89.30216 18804 ft 352 kts 53°
2026-04-25 16:35 23.18400 89.32468 18798 ft 353 kts 53°
2026-04-25 16:35 23.19739 89.34697 18801 ft 353 kts 53°
2026-04-25 16:35 23.21072 89.36918 18806 ft 354 kts 53°
2026-04-25 16:36 23.22433 89.39185 18804 ft 354 kts 54°
2026-04-25 16:36 23.22866 89.39907 18804 ft 354 kts 53°
2026-04-25 16:36 23.25117 89.43661 18803 ft 354 kts 53°
2026-04-25 16:36 23.26470 89.45920 18801 ft 354 kts 53°
2026-04-25 16:37 23.27815 89.48164 18798 ft 354 kts 54°
2026-04-25 16:37 23.29156 89.50405 18799 ft 354 kts 53°
2026-04-25 16:37 23.30500 89.52651 18802 ft 354 kts 53°
2026-04-25 16:37 23.31858 89.54920 18802 ft 354 kts 54°
2026-04-25 16:38 23.33194 89.57155 18801 ft 354 kts 53°
2026-04-25 16:38 23.34548 89.59421 18801 ft 354 kts 54°
2026-04-25 16:38 23.35880 89.61650 18799 ft 355 kts 53°
2026-04-25 16:38 23.37231 89.63894 18796 ft 354 kts 52°
2026-04-25 16:39 23.38891 89.65859 18812 ft 347 kts 38°
2026-04-25 16:39 23.40724 89.67519 18800 ft 347 kts 36°
2026-04-25 16:39 23.42606 89.69205 18797 ft 347 kts 36°
2026-04-25 16:39 23.44472 89.70876 18801 ft 347 kts 36°
2026-04-25 16:40 23.46333 89.72547 18798 ft 347 kts 36°
2026-04-25 16:40 23.48209 89.74235 18801 ft 347 kts 36°
2026-04-25 16:40 23.50082 89.75921 18555 ft 355 kts 36°
2026-04-25 16:40 23.51907 89.77747 18180 ft 362 kts 46°
2026-04-25 16:41 23.53286 89.80033 17859 ft 365 kts 57°
2026-04-25 16:41 23.54154 89.81646 17583 ft 367 kts 57°
2026-04-25 16:41 23.57130 89.87206 16681 ft 361 kts 57°
2026-04-25 16:42 23.58385 89.89546 16302 ft 358 kts 57°
2026-04-25 16:42 23.59635 89.91876 15925 ft 355 kts 57°
2026-04-25 16:42 23.60882 89.94196 15552 ft 352 kts 57°
2026-04-25 16:42 23.62104 89.96468 15183 ft 350 kts 57°
2026-04-25 16:43 23.63335 89.98759 14816 ft 347 kts 57°
2026-04-25 16:43 23.64577 90.01015 14445 ft 345 kts 55°
2026-04-25 16:43 23.65868 90.03191 14076 ft 342 kts 54°
2026-04-25 16:43 23.67288 90.05238 13671 ft 337 kts 42°
2026-04-25 16:44 23.69295 90.06511 13204 ft 330 kts 15°
2026-04-25 16:44 23.71524 90.07033 12853 ft 324 kts
2026-04-25 16:44 23.73727 90.07430 12484 ft 318 kts
2026-04-25 16:44 23.75923 90.07793 11910 ft 320 kts
2026-04-25 16:45 23.78120 90.08132 11332 ft 321 kts
2026-04-25 16:45 23.80347 90.08462 10740 ft 322 kts
2026-04-25 16:45 23.82559 90.08778 10150 ft 322 kts
2026-04-25 16:45 23.84781 90.09089 9565 ft 322 kts
2026-04-25 16:46 23.86963 90.09388 8964 ft 314 kts
2026-04-25 16:46 23.89108 90.09677 8504 ft 300 kts
2026-04-25 16:46 23.91117 90.09946 8136 ft 286 kts
2026-04-25 16:46 23.92415 90.10118 7917 ft 277 kts
2026-04-25 16:47 23.94909 90.10446 7500 ft 261 kts
2026-04-25 16:47 23.96682 90.10678 7207 ft 250 kts
2026-04-25 16:47 23.98374 90.10898 6930 ft 239 kts
2026-04-25 16:47 23.99979 90.11231 6614 ft 233 kts 20°
2026-04-25 16:48 24.01204 90.12335 6371 ft 222 kts 50°
2026-04-25 16:48 24.02114 90.13648 6159 ft 210 kts 52°
2026-04-25 16:48 24.02974 90.14916 5909 ft 204 kts 53°
2026-04-25 16:48 24.03792 90.16130 5640 ft 199 kts 53°
2026-04-25 16:49 24.04612 90.17349 5278 ft 199 kts 54°
2026-04-25 16:49 24.05429 90.18563 4949 ft 197 kts 54°
2026-04-25 16:49 24.06198 90.19780 4631 ft 193 kts 64°
2026-04-25 16:49 24.06412 90.21191 4246 ft 187 kts 102°
2026-04-25 16:50 24.06043 90.22529 3927 ft 182 kts 111°
2026-04-25 16:50 24.05340 90.23617 3535 ft 177 kts 150°
2026-04-25 16:50 24.04206 90.24132 3175 ft 176 kts 153°
2026-04-25 16:50 24.03199 90.24874 2867 ft 172 kts 143°
2026-04-25 16:51 24.02208 90.25625 2682 ft 170 kts 147°
2026-04-25 16:51 24.01251 90.26339 2737 ft 168 kts 144°
2026-04-25 16:51 24.00277 90.27105 2780 ft 173 kts 144°
2026-04-25 16:51 23.99612 90.27626 2797 ft 176 kts 144°
2026-04-25 16:52 23.98258 90.28697 2808 ft 181 kts 144°
2026-04-25 16:52 23.97256 90.29497 2771 ft 179 kts 144°
2026-04-25 16:52 23.96225 90.30317 2561 ft 183 kts 144°
2026-04-25 16:52 23.95229 90.31119 2281 ft 173 kts 144°
2026-04-25 16:53 23.93471 90.32522 1836 ft 140 kts 145°
2026-04-25 16:53 23.92705 90.33124 1642 ft 129 kts 145°
2026-04-25 16:53 23.91994 90.33684 1472 ft 124 kts 145°
2026-04-25 16:54 23.91274 90.34244 1400 ft 131 kts 145°
2026-04-25 16:54 23.90510 90.34850 1245 ft 139 kts 144°
2026-04-25 16:54 23.89701 90.35497 1071 ft 150 kts 144°
2026-04-25 16:54 23.88828 90.36193 861 ft 156 kts 144°
2026-04-25 16:55 23.87944 90.36902 655 ft 158 kts 144°
2026-04-25 16:55 23.87076 90.37609 417 ft 150 kts 143°
2026-04-25 16:55 23.86239 90.38270 232 ft 151 kts 144°
2026-04-25 16:55 23.85391 90.38938 56 ft 147 kts 143°
2026-04-25 16:56 23.84668 90.39513 42 ft 86 kts 144°
2026-04-25 16:56 23.84327 90.39786 45 ft 56 kts 144°
2026-04-25 16:56 23.84103 90.39984 46 ft 36 kts 125°
2026-04-25 16:56 23.83998 90.40230 44 ft 27 kts 102°
2026-04-25 16:57 23.84027 90.40424 42 ft 30 kts 62°
2026-04-25 16:57 23.84087 90.40519 42 ft 8 kts 54°
2026-04-25 16:57 23.84184 90.40567 42 ft 15 kts 325°
2026-04-25 16:57 23.84247 90.40518 43 ft 11 kts 330°
2026-04-25 16:58 23.84306 90.40564 44 ft 11 kts 56°
2026-04-25 16:58 23.84380 90.40598 46 ft 21 kts 322°
2026-04-25 16:58 23.84429 90.40558 47 ft 6 kts 323°
2026-04-25 16:58 23.84448 90.40530 47 ft 4 kts 274°
2026-04-25 16:59 23.84436 90.40500 47 ft 3 kts 233°
2026-04-25 16:59 23.84425 90.40483 46 ft 0 kts 233°
2026-04-25 16:59 23.84424 90.40482 46 ft 0 kts 233°